Regional Weather Roundup
Issued by NWS Green Bay, WI

Home | Current Version | Previous Version | Text Only | Print | Product List | Glossary On
Versions: 1 2 3 4 5 6 7 8 9 10 11 12 13 14 15 16 17 18 19 20 21 22 23 24 25 26 27 28 29 30 31 32 33 34 35 36 37 38 39 40 41 42 43 44 45 46 47 48 49 50
000
ASUS43 KGRB 261611
RWRGRB

NORTH-CENTRAL AND NORTHEAST WISCONSIN REGIONAL WEATHER ROUNDUP
NATIONAL WEATHER SERVICE GREEN BAY WI
1100 AM CDT TUE MAY 26 2015

WIZ005-009-010>012-018-019-261700-
NORTH CENTRAL WISCONSIN

CITY           SKY/WX    TMP DP  RH WIND       PRES   REMARKS
IRONWOOD       CLOUDY    55  54  94 NE6       29.83S
MANITOWISH WTR CLOUDY    64  61  93 E3        29.84S
ARBOR VITAE    CLOUDY    63  60  88 CALM      29.84F
EAGLE RIVER    CLOUDY    64  60  87 CALM      29.84F
LAND O LAKES   LGT RAIN  64  59  83 S3        29.87S
RHINELANDER    CLOUDY    65  60  84 SW3       29.85F
PHILLIPS       CLOUDY    63  60  91 CALM      29.82F
ANTIGO         CLOUDY    70  64  83 E3        29.84F
TOMAHAWK       CLOUDY    65  60  86 CALM      29.84F
MERRILL        CLOUDY    69  63  82 CALM      29.83F
$$

WIZ013-073-261700-
NORTHEAST WISCONSIN

CITY           SKY/WX    TMP DP  RH WIND       PRES   REMARKS
IRON MOUNTAIN  CLOUDY    70  62  76 CALM      29.84S
MARINETTE      PTSUNNY   73  63  68 SW5       29.83F
OCONTO         PTSUNNY   75  65  73 S7        29.82F
$$

WIZ017-030-035>037-045-261700-
CENTRAL WISCONSIN

CITY           SKY/WX    TMP DP  RH WIND       PRES   REMARKS
MEDFORD        CLOUDY    67  62  84 SE5       29.82F
WAUSAU         CLOUDY    72  62  71 SE6       29.79F
MOSINEE        MOSUNNY   72  63  73 CALM      29.82F
MARSHFIELD     CLOUDY    71  61  70 CALM      29.81F
WISC RAPIDS    CLOUDY    70  62  76 E6        29.80F
STEVENS POINT  CLOUDY    69  60  71 CALM      29.82F
WAUPACA        CLOUDY    75  67  76 E6        29.81F
SHAWANO        CLOUDY    75  64  67 S3        29.83F
CLINTONVILLE   CLOUDY    73  63  68 SE8       29.82F
$$

WIZ038-039-048-051-261700-
FOX VALLEY

CITY           SKY/WX    TMP DP  RH WIND       PRES   REMARKS
NWS GREEN BAY  PTSUNNY   77  69  76 SE8       29.82F
APPLETON       CLOUDY    72  64  78 S15       29.84F
OSHKOSH        CLOUDY    70  65  84 S13       29.83S
FOND DU LAC    CLOUDY    71  65  81 S8        29.82F
$$

WIZ022-050-052-261700-
EAST CENTRAL WISCONSIN

CITY           SKY/WX    TMP DP  RH WIND       PRES   REMARKS
STURGEON BAY   PTSUNNY   66  61  82 SE12      29.88F
MANITOWOC      CLOUDY    63  60  90 S14G22    29.87S
SHEBOYGAN      CLOUDY    67  63  87 SE9       29.86F
$$

LMZ563-521-522-541>543-261700-
LAKESHORE

STATION/POSITION TIME  TEMP    WIND        PRES    VSBY  WAVE
                       AIR SEA DIR/SP/G                  HT/PER
                 (UTC) (F)     (DEG/KT/KT) (MB)    (MI)  (FT/S)
SHEBOYGAN LKSHOR 1600   49     160/ 12/ 12 1011.5F
KEWAUNEE LKSHORE 1500   48     170/ 12/ 14 1011.1R
TWO RIVERS CG    1455   48                 1012.4    3/8   2
NORTHPORT PIER   1500   54     160/  6/ 11 1011.5S
N MID LAKE BUOY  1550   44 37  200/ 14/ 16 1012.1F         2/ 5
SISTER BAY LKSHO 1448   68     150/ 10/ 15   N/A
STURGEON BAY CG  1510   46     180/  7     1013.1    3/8   2
CHAMBERS ISLAND  1500   69     180/  5/ 12 1010.8F
MENOMINEE LKSHOR 1500   69     170/  7/ 10 1011.3F
$$



USA.gov is the U.S. government's official web portal to all federal, state and local government web resources and services.